User: anonymous   Login
Location: Caltech
(34.1382°N, 118.1253°W)
Time: 05:39:24
(UTC-08:00)
Language:

CZ-4B DEB - Orbit

View from above orbital plane
View from above orbital plane
View from above satellite
View from above satellite

Ground track
Ground track

The orbit data is extracted from the following two-line orbital elements,

1 27433U 02024D   14353.94202843  .00000775  00000-0  44883-3 0    29
2 27433 098.8519 316.8889 0015583 102.3472 324.7624 14.11733475648726
Epoch (UTC): 19 December 2014 22:36:31
Eccentricity: 0.0015583
inclination: 98.8519°
perigee height: 842 km
apogee height: 865 km
right ascension of ascending node: 316.8889°
argument of perigee: 102.3472°
revolutions per day: 14.11733475
mean anomaly at epoch: 324.7624°
orbit number at epoch: 64872

The dashed part of the orbit path shows where the satellite is in the earth's shadow,  

DLR